[[{"header":{"parameterUnit":"m.s-1","parameterCategory":1,"la1":30.2991,"la2":30.254,"lo1":-89.0895,"lo2":-89.0444,"dy":0.0017,"dx":0.0017,"nx":28,"ny":28,"refTime":"2024-02-14T03:00:00:Z","depth":0,"parameterNumber":2,"parameterNumberName":"U-component_of_WINDS"},"data":[0,0,0,0,0,0,0,0,0,0,0,0,0,0,0,0,0,0,0,0,0,0,0,0,0,0,0,0,0,0,0,0,0,0,0,0,0,0,0,0,0,0,0,0,0,0,0,0,0,0,0,0,0,0,0,0,0,0,-1.8417,-1.8417,0,-1.8407,-1.8407,-1.8407,-1.8319,-1.8317,-1.8315,-1.8313,-1.8306,-1.8307,-1.8309,0,0,0,0,0,0,0,0,0,0,0,0,0,-1.8362,-1.8363,-1.8417,-1.8417,-1.8416,-1.8407,-1.8407,-1.8407,-1.832,-1.8317,-1.8314,-1.8312,-1.8305,-1.8307,-1.8309,0,0,0,0,0,0,0,0,0,0,0,0,0,-1.8373,-1.8364,-1.8417,-1.8372,-1.8367,-1.8407,-1.8407,-1.8407,-1.832,-1.8317,-1.8314,-1.8311,-1.8304,-1.8307,-1.831,-1.8393,0,0,-1.8318,-1.832,0,0,0,0,0,0,0,0,-1.8372,-1.8375,-1.8378,-1.8375,-1.837,-1.8361,-1.8385,-1.8403,-1.8321,-1.8338,-1.8313,-1.8309,-1.8327,-1.8328,-1.8333,-1.8393,-1.8392,-1.8319,-1.832,-1.8321,-1.8322,0,0,0,0,0,0,0,-1.8371,-1.8375,-1.8413,-1.8379,-1.8374,-1.8353,-1.8351,-1.8388,-1.8351,-1.8337,-1.833,-1.833,-1.8324,-1.8331,-1.8332,-1.8392,-1.8318,-1.8321,-1.8323,-1.8324,-1.8521,-1.8524,0,0,0,0,0,0,-1.8377,-1.8375,-1.8413,-1.8413,-1.8363,-1.8357,-1.8354,-1.8367,-1.8351,-1.8345,-1.8333,-1.8326,-1.8328,-1.8329,-1.8332,-1.8428,-1.8321,-1.8324,-1.8326,-1.8517,-1.8522,-1.8525,0,0,0,0,0,0,-1.8376,-1.8381,-1.8414,-1.8392,-1.8394,-1.8361,-1.8377,-1.8369,-1.8375,-1.8348,-1.8341,-1.8346,-1.8325,-1.8328,-1.8379,-1.8427,-1.8325,-1.8328,-1.8513,-1.8519,-1.8524,-1.8622,0,0,0,0,0,0,-1.8374,-1.8381,-1.8411,-1.8393,-1.8396,-1.846,-1.838,-1.8371,-1.838,-1.8371,-1.8359,-1.8353,-1.8323,-1.8375,-1.8381,-1.8429,-1.833,-1.8509,-1.8516,-1.8522,-1.8615,-1.8631,-1.8644,0,0,0,0,0,-1.8373,-1.844,-1.8413,-1.8418,-1.8433,-1.8463,-1.8464,-1.8427,-1.8384,-1.8415,-1.8398,-1.8354,-1.8421,-1.8381,-1.8387,-1.8437,-1.8505,-1.8514,-1.8521,-1.8608,-1.8627,-1.8644,0,0,0,0,0,0,-1.8465,-1.8436,-1.8407,-1.847,-1.8469,-1.8448,-1.8485,-1.8449,-1.8461,-1.8452,-1.8406,-1.8404,-1.8462,-1.8454,-1.841,-1.8517,-1.8456,-1.8465,-1.8519,-1.8537,-1.8552,-1.8552,-1.8332,0,0,0,0,0,-1.8492,-1.8518,-1.8492,-1.855,-1.8552,-1.8519,-1.853,-1.8502,-1.85,-1.8499,-1.8485,-1.8486,-1.8507,-1.8522,-1.854,-1.8614,-1.861,-1.8651,-1.8666,-1.8678,-1.8687,-1.8726,-1.8744,-1.8552,-1.8552,-1.8552,0,0,-1.8549,-1.8537,-1.8556,-1.8568,-1.8565,-1.8593,-1.8519,-1.8552,-1.8573,-1.8504,-1.8551,-1.8542,-1.8539,-1.8602,-1.8629,-1.8598,-1.8739,-1.8688,-1.8698,-1.87,-1.8736,-1.8755,-1.8771,-1.8557,-1.8556,-1.8555,0,0,-1.8668,-1.8661,-1.8709,-1.8707,-1.8702,-1.8681,-1.8693,-1.8677,-1.8668,-1.8714,-1.8663,-1.8689,-1.8726,-1.8726,-1.8732,-1.8853,-1.8813,-1.8861,-1.8937,-1.8976,-1.8991,-1.9004,-1.9048,-1.9064,-1.8869,-1.887,-1.887,0,-1.874,-1.8779,-1.8738,-1.8775,-1.8783,-1.8722,-1.8771,-1.8771,-1.8773,-1.878,-1.8745,-1.8791,-1.8786,-1.8848,-1.8878,-1.8884,-1.8897,-1.8861,-1.8992,-1.9005,-1.9017,-1.9058,-1.9074,-1.8875,-1.8875,-1.8874,-1.8874,0,-1.8868,-1.8897,-1.8937,-1.894,-1.8952,-1.8994,-1.8961,-1.8979,-1.895,-1.8932,-1.8981,-1.8972,-1.8988,-1.9001,-1.8973,-1.906,-1.9041,-1.9,-1.8937,-1.9041,-1.9079,-1.9095,-1.8884,-1.8882,-1.888,-1.8879,0,0,-1.9043,-1.9024,-1.9039,-1.904,-1.9031,-1.9053,-1.9094,-1.9109,-1.9125,-1.913,-1.9163,-1.9197,-1.9159,-1.9166,-1.9138,-1.9172,-1.927,-1.9127,-1.9126,-1.9154,-1.9366,-1.9397,-1.9416,-1.9244,-1.9247,-1.9249,-1.9366,0,-1.9157,-1.9224,-1.9189,-1.9262,-1.9288,-1.9232,-1.9268,-1.9268,-1.9253,-1.9275,-1.9259,-1.9283,-1.9232,-1.9235,-1.9267,-1.9251,-1.9312,-1.9242,-1.9275,-1.9277,-1.9277,-1.9435,-1.9467,-1.9578,-1.9381,-1.9383,-1.9385,0,-1.9298,-1.9308,-1.9383,-1.9371,-1.9381,-1.9413,-1.9425,-1.9446,-1.9445,-1.9432,-1.944,-1.9405,-1.9445,-1.9384,-1.944,-1.9394,-1.9406,-1.94,-1.9404,-1.9405,-1.9337,-1.944,-1.9613,-1.9629,-1.9408,-1.9406,-1.9405,0,-1.9418,-1.945,-1.9499,-1.9502,-1.9489,-1.9514,-1.9509,-1.9505,-1.9517,-1.9528,-1.9535,-1.9551,-1.9559,-1.9573,-1.9543,-1.9502,-1.9604,-1.954,-1.9595,-1.9596,-1.9618,-1.9617,-1.9794,-1.9627,-1.9627,-1.9626,-1.9626,0,-1.9548,-1.9597,-1.9553,-1.9583,-1.9636,-1.9597,-1.9651,-1.9641,-1.9638,-1.9666,-1.9619,-1.9647,-1.9607,-1.9631,-1.9608,-1.9659,-1.9663,-1.9654,-1.9647,-1.9658,-1.9659,-1.9664,-1.9656,-1.9631,-1.963,-1.9629,-1.9628,0,-1.969,-1.9663,-1.9713,-1.9697,-1.9694,-1.9734,-1.9721,-1.9749,-1.9732,-1.9768,-1.9775,-1.9748,-1.9774,-1.9747,-1.9771,-1.9756,-1.9824,-1.9806,-1.9824,-1.9818,-1.9875,-1.987,-2.0061,-2.0085,-1.9903,-1.9905,-1.9906,0,-1.9775,-1.9811,-1.9799,-1.9814,-1.9813,-1.9838,-1.985,-1.9814,-1.9828,-1.9831,-1.9859,-1.9881,-1.9897,-1.9942,-1.9925,-1.9944,-1.9926,-1.9992,-1.9929,-1.9939,-1.9927,-1.9925,-1.9929,-2.0005,-2.0007,-2.0009,-2.001,0,-1.9929,-1.9914,-1.9932,-1.9946,-1.9962,-1.9971,-1.9978,-1.9993,-1.9956,-1.9975,-2.0001,-2.0013,-2.0038,-2.0062,-2.0076,-2.0073,-2.0036,-2.0031,-2.0045,-2.0055,-2.0064,-2.006,-1.9858,-2.0026,-2.0025,-2.0024,-2.0023,-2.0022,-2.0044,-2.0074,-2.007,-2.0093,-2.0094,-2.0101,-2.0127,-2.0113,-2.0134,-2.0151,-2.0129,-2.0162,-2.0162,-2.0177,-2.0179,-2.0204,-2.0176,-2.0196,-2.0201,-2.0207,-2.0215,-2.0061,-2.0207,-2.0206,-2.0206,-2.0206,-2.0205,0,-2.0195,-2.019,-2.0212,-2.0222,-2.024,-2.0204,-2.0209,-2.0227,-2.0256,-2.0259,-2.0276,-2.0307,-2.0329,-2.0316,-2.0335,-2.0359,-2.0343,-2.0365,-2.0363,-2.0363,-2.0239,-2.0225,-2.0378,-2.0378,-2.0378,-2.0378,-2.0378,-2.0378,-2.0276,-2.0324,-2.0309,-2.0358,-2.0353,-2.0384,-2.0391,-2.0398,-2.04,-2.0436,-2.0455,-2.0445,-2.0442,-2.0461,-2.0481,-2.0476,-2.0486,-2.0515,-2.0504,-2.0388,-2.0371,-2.0355,-2.0342,-2.0517,-2.0517,-2.0626,-2.0627,-2.0628]},{"header":{"parameterUnit":"m.s-1","parameterCategory":1,"la1":30.2991,"la2":30.254,"lo1":-89.0895,"lo2":-89.0444,"dy":0.0017,"dx":0.0017,"nx":28,"ny":28,"refTime":"2024-02-14T03:00:00:Z","depth":0,"parameterNumber":3,"parameterNumberName":"V-component_of_WINDS"},"data":[0,0,0,0,0,0,0,0,0,0,0,0,0,0,0,0,0,0,0,0,0,0,0,0,0,0,0,0,0,0,0,0,0,0,0,0,0,0,0,0,0,0,0,0,0,0,0,0,0,0,0,0,0,0,0,0,0,0,2.0867,2.0867,0,2.0892,2.0892,2.0892,2.0932,2.0933,2.0934,2.0935,2.0958,2.0958,2.0958,0,0,0,0,0,0,0,0,0,0,0,0,0,2.0852,2.0852,2.0867,2.0867,2.0868,2.0892,2.0892,2.0893,2.0932,2.0933,2.0934,2.0935,2.0958,2.0958,2.0958,0,0,0,0,0,0,0,0,0,0,0,0,0,2.0866,2.0852,2.0867,2.089,2.0893,2.0892,2.0892,2.0893,2.0932,2.0933,2.0934,2.0935,2.0958,2.0958,2.0958,2.0935,0,0,2.0958,2.0958,0,0,0,0,0,0,0,0,2.0865,2.0867,2.0887,2.0889,2.0892,2.091,2.0896,2.0907,2.0932,2.0917,2.0935,2.0936,2.0941,2.0942,2.0945,2.0936,2.0937,2.0958,2.0958,2.0957,2.0957,0,0,0,0,0,0,0,2.0864,2.0866,2.0877,2.0887,2.089,2.0899,2.0902,2.0898,2.0923,2.0918,2.0921,2.0924,2.0943,2.0945,2.0945,2.0938,2.0958,2.0957,2.0957,2.0957,2.0912,2.0911,0,0,0,0,0,0,2.086,2.0865,2.0876,2.0878,2.0881,2.0899,2.0902,2.0903,2.0923,2.0927,2.0923,2.0926,2.0944,2.0946,2.0946,2.0921,2.0957,2.0957,2.0957,2.0913,2.0911,2.091,0,0,0,0,0,0,2.086,2.0861,2.0875,2.0872,2.0875,2.0898,2.0898,2.0903,2.0905,2.0926,2.0931,2.0921,2.0945,2.0947,2.0938,2.0922,2.0957,2.0957,2.0914,2.0912,2.0911,2.0869,0,0,0,0,0,0,2.0859,2.086,2.0852,2.0871,2.0875,2.0866,2.0897,2.0903,2.0905,2.0909,2.0925,2.0929,2.0946,2.0938,2.0938,2.0923,2.0957,2.0916,2.0913,2.0911,2.0872,2.0866,2.0861,0,0,0,0,0,2.0858,2.0839,2.0852,2.0853,2.0865,2.0865,2.0867,2.0888,2.0904,2.0895,2.0909,2.0928,2.0924,2.0936,2.0937,2.0921,2.0917,2.0914,2.0912,2.0875,2.0868,2.0862,0,0,0,0,0,0,2.0817,2.0842,2.0856,2.0843,2.0852,2.0872,2.0862,2.088,2.0884,2.0887,2.0912,2.0916,2.0903,2.0912,2.0925,2.09,2.0923,2.0921,2.0895,2.0889,2.0883,2.0881,2.0957,0,0,0,0,0,2.0806,2.0805,2.0827,2.0813,2.0817,2.0839,2.084,2.0855,2.0865,2.0869,2.0882,2.089,2.0891,2.089,2.0892,2.0874,2.0878,2.0864,2.0858,2.0854,2.0851,2.0841,2.0835,2.0902,2.0902,2.0902,0,0,2.0784,2.0798,2.0795,2.0805,2.0814,2.0811,2.0842,2.0838,2.0836,2.0868,2.086,2.087,2.0881,2.0867,2.0862,2.0874,2.0833,2.085,2.0847,2.0846,2.0838,2.0831,2.0826,2.09,2.09,2.09,0,0,2.0742,2.0753,2.0742,2.0751,2.0764,2.0778,2.0776,2.0794,2.0802,2.0795,2.0819,2.0816,2.0817,2.0824,2.0827,2.0788,2.0806,2.0788,2.076,2.075,2.0745,2.074,2.0725,2.072,2.0785,2.0785,2.0785,0,2.0713,2.0711,2.0735,2.0729,2.0732,2.0762,2.0751,2.0758,2.077,2.0772,2.0785,2.0787,2.0796,2.0784,2.0775,2.0777,2.0774,2.0786,2.0744,2.0739,2.0735,2.0721,2.0716,2.0783,2.0783,2.0783,2.0784,0,2.0673,2.0671,2.0661,2.0673,2.0676,2.0667,2.0689,2.0689,2.0704,2.0717,2.0709,2.0722,2.0726,2.0725,2.074,2.0715,2.0722,2.0739,2.0762,2.0726,2.0713,2.0708,2.078,2.078,2.0781,2.0782,0,0,2.0605,2.0631,2.0627,2.0632,2.0649,2.0648,2.0641,2.0646,2.0644,2.0652,2.0646,2.0646,2.0662,2.0666,2.0682,2.0674,2.0641,2.0692,2.0693,2.0681,2.0613,2.0599,2.0593,2.0653,2.0653,2.0652,2.0612,0,2.0566,2.0556,2.0577,2.0562,2.056,2.0588,2.0582,2.0591,2.0604,2.0603,2.0617,2.0616,2.0638,2.064,2.0633,2.0646,2.0628,2.065,2.0647,2.0647,2.0642,2.0586,2.0572,2.0533,2.0607,2.0607,2.0606,0,2.0519,2.0525,2.0509,2.0527,2.0526,2.0521,2.0527,2.0527,2.0537,2.0547,2.0551,2.057,2.0564,2.0587,2.0578,2.0593,2.0593,2.0599,2.0598,2.0598,2.0623,2.0583,2.0522,2.0516,2.0599,2.0599,2.06,0,2.0469,2.0474,2.0465,2.0469,2.0489,2.0484,2.0492,2.0504,2.0506,2.0511,2.0513,2.0517,2.0519,2.0522,2.0541,2.0556,2.0529,2.0554,2.0536,2.0535,2.0528,2.0528,2.0464,2.053,2.053,2.053,2.053,0,2.0423,2.0412,2.0443,2.0437,2.0425,2.045,2.0438,2.0449,2.0459,2.0455,2.0481,2.0477,2.0503,2.0501,2.0516,2.0506,2.0507,2.0514,2.0518,2.0511,2.051,2.051,2.0513,2.0528,2.0529,2.0529,2.0529,0,2.0365,2.0386,2.0377,2.0398,2.0403,2.0393,2.041,2.0405,2.0419,2.0414,2.0415,2.0436,2.0436,2.0456,2.0459,2.047,2.0452,2.0461,2.0448,2.0451,2.0431,2.0432,2.0365,2.0357,2.0428,2.0427,2.0427,0,2.0333,2.0326,2.0345,2.0345,2.0352,2.0351,2.0353,2.0377,2.0378,2.039,2.0384,2.0385,2.0388,2.0386,2.0402,2.0404,2.0413,2.0389,2.0413,2.0407,2.0411,2.0411,2.041,2.0384,2.0383,2.0382,2.0382,0,2.0275,2.0285,2.0287,2.0293,2.0295,2.03,2.0307,2.0305,2.0332,2.0331,2.0331,2.0334,2.0337,2.0338,2.0344,2.0352,2.037,2.0374,2.037,2.0362,2.0354,2.0357,2.0433,2.0375,2.0376,2.0376,2.0377,2.0377,2.0228,2.0223,2.0236,2.0237,2.0245,2.0251,2.0247,2.0261,2.0262,2.0267,2.0282,2.0279,2.029,2.0299,2.0306,2.0304,2.0315,2.0309,2.0307,2.0305,2.0301,2.0356,2.0305,2.0305,2.0305,2.0305,2.0306,0,2.017,2.018,2.0181,2.019,2.0191,2.021,2.0219,2.0218,2.0216,2.0225,2.0227,2.0227,2.0228,2.0244,2.0247,2.0242,2.025,2.0242,2.0242,2.0243,2.0291,2.0294,2.0235,2.0235,2.0235,2.0235,2.0235,2.0235,2.014,2.0131,2.0143,2.0138,2.0148,2.0146,2.0149,2.0155,2.0162,2.0161,2.0162,2.0173,2.0184,2.0188,2.019,2.0194,2.0194,2.0182,2.0189,2.0233,2.024,2.0246,2.0249,2.0182,2.0181,2.0141,2.0141,2.014]}]]